Location: Sternwarte auf dem Internationalen Platz Vogelsang IP
(50.5721°N, 6.4398°E)
Time: 05:56:06
(UTC+01:00)

Transit 2A Rocket - Pass Details

Date: 13 December 2025
Orbit: 581 x 903 km, 66.7° (Epoch: 13 January)

Event Time Altitude Azimuth Distance (km) Brightness Sun altitude
Rises 09:52:33 0° 226° (SW) 3,321 8.4 8.6°
Reaches altitude 10° 09:54:56 10° 230° (SW) 2,435 7.7 8.8°
Maximum altitude 10:00:35 65° 312° (NW) 955 5.4 9.4°
Drops below altitude 10° 10:06:35 10° 34° (NE) 2,581 7.5 9.9°
Sets 10:09:11 0° 38° (NE) 3,534 8.2 10.1°
